Terminal Aerodrome Forecast
Issued by NWS

Home | Current Version | Previous Version | Text Only | Print | Product List | Glossary On
Versions: 1 2 3 4 5 6 7 8 9 10 11 12 13 14 15 16 17 18 19 20 21 22 23 24 25 26 27 28 29 30 31 32 33 34 35 36 37 38 39 40 41 42 43 44 45 46 47 48 49 50
000
FTUS46 KOTX 290123 AAA
TAFPUW
TAF AMD
KPUW 290123Z 2901/2924 28006KT P6SM VCSH BKN003 OVC120
      TEMPO 2903/2906 2SM -SHSN OVC008
     FM291200 10008KT P6SM SCT008 BKN025 OVC050
     FM291500 11017KT P6SM SCT025 BKN050
     FM292000 10021KT P6SM BKN050 OVC100=

USA.gov is the U.S. government's official web portal to all federal, state and local government web resources and services.